This demonstration page uses our WeatherBlox Daily Observations layout. Learn more.

Left ArrowRight Arrow

Hourly Observations for December 8, 2019

Temp ( °F °C ) Dew Point ( °F °C ) Humidity (%) Winds ( mph kmh ) Pressure ( in mb ) Visibility ( mi km ) Precip ( " mm )
12:51 am 00:51 Cloudy with Light Rain 54 12.2 48 8.9 80 80 N N/A 30.03 1017 10 16 0.00 0.00
1:51 am 01:51 Mostly Cloudy 53 11.7 49 9.4 86 86 WNW 6 9 30.01 1016 10 16 0.01 0.25
2:51 am 02:51 Mostly Cloudy 52 11.1 49 9.4 89 89 N 6 9 30.01 1016 10 16 N/A
3:51 am 03:51 Cloudy 52 11.1 50 10 93 93 N N/A 30.01 1016 10 16 N/A
4:51 am 04:51 Mostly Cloudy 52 11.1 50 10 93 93 ENE 3 6 29.98 1015 10 16 0.00 0.00
5:51 am 05:51 Cloudy 52 11.1 50 10 93 93 N N/A 30.00 1016 10 16 N/A
6:51 am 06:51 Mostly Cloudy 51 10.6 50 10 96 96 N N/A 30.01 1016 10 16 N/A
7:51 am 07:51 Cloudy 52 11.1 51 10.6 97 97 N N/A 30.02 1017 10 16 N/A
8:51 am 08:51 Mostly Cloudy 52 11.1 51 10.6 97 97 N N/A 30.04 1017 10 16 0.01 0.25
9:13 am 09:13 Partly Cloudy 53 11.7 51 10.6 93 93 NE 3 6 30.06 1018 10 16 N/A
9:51 am 09:51 Sunny 54 12.2 51 10.6 90 90 SE 7 11 30.04 1017 10 16 N/A
10:51 am 10:51 Partly Cloudy 55 12.8 51 10.6 87 87 SE 5 7 30.02 1017 10 16 N/A
11:51 am 11:51 Mostly Sunny 56 13.3 52 11.1 87 87 N N/A 29.99 1016 10 16 N/A
12:51 pm 12:51 Mostly Cloudy 58 14.4 51 10.6 78 78 WSW 3 6 29.97 1015 10 16 N/A
1:51 pm 13:51 Mostly Cloudy 60 15.6 51 10.6 72 72 N N/A 29.93 1014 10 16 N/A
2:51 pm 14:51 Mostly Sunny 62 16.7 52 11.1 70 70 WSW 5 7 29.91 1013 10 16 N/A
3:51 pm 15:51 Mostly Sunny 62 16.7 52 11.1 70 70 SSE 3 6 29.90 1013 10 16 N/A
4:51 pm 16:51 Mostly Sunny 60 15.6 52 11.1 75 75 SSW 7 11 29.92 1013 10 16 N/A
5:51 pm 17:51 Clear 58 14.4 52 11.1 81 81 N N/A 29.91 1013 10 16 N/A
6:51 pm 18:51 Mostly Cloudy 57 13.9 53 11.7 87 87 N 3 6 29.94 1014 10 16 N/A
7:51 pm 19:51 Cloudy 57 13.9 53 11.7 87 87 N N/A 29.92 1013 10 16 N/A
8:51 pm 20:51 Partly Cloudy 56 13.3 53 11.7 90 90 SW 6 9 29.92 1013 10 16 N/A
9:51 pm 21:51 Mostly Clear 55 12.8 52 11.1 90 90 NE 3 6 29.90 1012 10 16 N/A
10:51 pm 22:51 Mostly Cloudy 54 12.2 52 11.1 93 93 N N/A 29.90 1012 10 16 N/A
11:51 pm 23:51 Mostly Cloudy 54 12.2 51 10.6 90 90 S 3 6 29.90 1012 10 16 N/A

Powered by AerisWeather